Time,TemperatureF,DewpointF,PressureIn,WindDirection,WindDirectionDegrees,WindSpeedMPH,WindSpeedGustMPH,Humidity,HourlyPrecipIn,Conditions,Clouds,dailyrainin,SoftwareType,DateUTC
2013-09-09 00:00:00,77.2,67.9,29.88,SE,145,0.0,0.0,73,0.00,,,0.00,VWS V14.01,2013-09-09 05:00:00,
2013-09-09 00:03:00,77.1,67.8,29.88,SE,145,0.0,0.0,73,0.00,,,0.00,VWS V14.01,2013-09-09 05:03:00,
2013-09-09 00:08:00,77.0,67.7,29.88,SE,145,0.0,0.0,73,0.00,,,0.00,VWS V14.01,2013-09-09 05:08:00,
2013-09-09 00:13:00,76.9,67.6,29.89,SE,145,0.0,0.0,73,0.00,,,0.00,VWS V14.01,2013-09-09 05:13:00,
2013-09-09 00:18:00,76.8,67.5,29.88,SE,145,0.0,0.0,73,0.00,,,0.00,VWS V14.01,2013-09-09 05:18:00,
2013-09-09 00:23:00,76.6,67.3,29.89,SE,145,0.0,0.0,73,0.00,,,0.00,VWS V14.01,2013-09-09 05:23:00,
2013-09-09 00:28:00,76.4,67.5,29.89,SE,145,0.0,0.0,74,0.00,,,0.00,VWS V14.01,2013-09-09 05:28:00,
2013-09-09 00:30:00,76.3,67.0,29.88,SE,145,0.0,1.0,73,0.00,,,0.00,VWS V14.01,2013-09-09 05:30:00,
2013-09-09 00:33:00,76.3,67.4,29.88,SE,145,0.0,0.0,74,0.00,,,0.00,VWS V14.01,2013-09-09 05:33:00,
2013-09-09 00:38:00,76.2,67.3,29.89,SE,145,0.0,0.0,74,0.00,,,0.00,VWS V14.01,2013-09-09 05:38:00,
2013-09-09 00:43:00,76.1,66.8,29.89,SE,145,0.0,0.0,73,0.00,,,0.00,VWS V14.01,2013-09-09 05:43:00,
2013-09-09 00:48:00,76.0,66.3,29.89,SE,145,0.0,0.0,72,0.00,,,0.00,VWS V14.01,2013-09-09 05:48:00,
2013-09-09 00:53:00,76.0,66.3,29.89,SE,145,0.0,0.0,72,0.00,,,0.00,VWS V14.01,2013-09-09 05:53:00,
2013-09-09 00:58:00,76.0,66.3,29.89,SE,146,0.0,0.0,72,0.00,,,0.00,VWS V14.01,2013-09-09 05:58:00,
2013-09-09 01:00:00,76.1,66.0,29.88,SE,146,0.0,0.0,71,0.00,,,0.00,VWS V14.01,2013-09-09 06:00:00,
2013-09-09 01:03:00,76.1,66.0,29.89,SE,146,0.0,0.0,71,0.00,,,0.00,VWS V14.01,2013-09-09 06:03:00,
2013-09-09 01:08:00,76.3,65.8,29.89,SE,145,0.0,1.0,70,0.00,,,0.00,VWS V14.01,2013-09-09 06:08:00,
2013-09-09 01:13:00,76.5,65.6,29.88,SE,145,0.0,1.0,69,0.00,,,0.00,VWS V14.01,2013-09-09 06:13:00,
2013-09-09 01:18:00,76.7,65.8,29.88,SSE,148,1.0,1.0,69,0.00,,,0.00,VWS V14.01,2013-09-09 06:18:00,
2013-09-09 01:23:00,76.9,65.5,29.88,WNW,303,0.0,3.0,68,0.00,,,0.00,VWS V14.01,2013-09-09 06:23:00,
2013-09-09 01:28:00,77.1,65.7,29.88,NW,304,0.0,3.0,68,0.00,,,0.00,VWS V14.01,2013-09-09 06:28:00,
2013-09-09 01:30:00,77.2,65.4,29.88,NW,310,0.0,3.0,67,0.00,,,0.00,VWS V14.01,2013-09-09 06:30:00,
2013-09-09 01:33:00,77.2,65.4,29.88,NW,310,0.0,0.0,67,0.00,,,0.00,VWS V14.01,2013-09-09 06:33:00,
2013-09-09 01:38:00,77.3,65.5,29.88,NW,310,0.0,0.0,67,0.00,,,0.00,VWS V14.01,2013-09-09 06:38:00,
2013-09-09 01:43:00,77.4,65.2,29.89,NW,311,0.0,1.0,66,0.00,,,0.00,VWS V14.01,2013-09-09 06:43:00,
2013-09-09 01:48:00,77.4,65.2,29.88,NW,315,0.0,1.0,66,0.00,,,0.00,VWS V14.01,2013-09-09 06:48:00,
2013-09-09 01:53:00,77.4,65.2,29.88,NW,319,0.0,1.0,66,0.00,,,0.00,VWS V14.01,2013-09-09 06:53:00,
2013-09-09 01:58:00,77.4,65.2,29.88,NW,321,0.0,1.0,66,0.00,,,0.00,VWS V14.01,2013-09-09 06:58:00,
2013-09-09 02:00:00,77.3,65.1,29.88,NW,321,0.0,1.0,66,0.00,,,0.00,VWS V14.01,2013-09-09 07:00:00,
2013-09-09 02:03:00,77.3,65.1,29.88,NW,321,0.0,1.0,66,0.00,,,0.00,VWS V14.01,2013-09-09 07:03:00,
2013-09-09 02:08:00,77.2,65.0,29.88,NNW,329,0.0,1.0,66,0.00,,,0.00,VWS V14.01,2013-09-09 07:08:00,
2013-09-09 02:13:00,77.1,64.9,29.88,ESE,121,0.0,2.0,66,0.00,,,0.00,VWS V14.01,2013-09-09 07:13:00,
2013-09-09 02:18:00,77.0,64.8,29.88,SSW,194,0.0,2.0,66,0.00,,,0.00,VWS V14.01,2013-09-09 07:18:00,
2013-09-09 02:23:00,77.0,64.8,29.88,SSW,199,0.0,2.0,66,0.00,,,0.00,VWS V14.01,2013-09-09 07:23:00,
2013-09-09 02:28:00,76.9,64.7,29.88,SSW,199,0.0,2.0,66,0.00,,,0.00,VWS V14.01,2013-09-09 07:28:00,
2013-09-09 02:30:00,76.8,64.6,29.88,SSW,200,0.0,3.0,66,0.00,,,0.00,VWS V14.01,2013-09-09 07:30:00,
2013-09-09 02:33:00,76.8,64.6,29.88,SSW,200,0.0,1.0,66,0.00,,,0.00,VWS V14.01,2013-09-09 07:33:00,
2013-09-09 02:38:00,76.8,64.6,29.88,SSW,200,1.0,2.0,66,0.00,,,0.00,VWS V14.01,2013-09-09 07:38:00,
2013-09-09 02:43:00,76.7,64.9,29.88,South,190,2.0,6.0,67,0.00,,,0.00,VWS V14.01,2013-09-09 07:43:00,
2013-09-09 02:48:00,76.7,64.9,29.88,SSW,201,0.0,6.0,67,0.00,,,0.00,VWS V14.01,2013-09-09 07:48:00,
2013-09-09 02:53:00,76.7,64.5,29.88,SW,235,0.0,6.0,66,0.00,,,0.00,VWS V14.01,2013-09-09 07:53:00,
2013-09-09 02:58:00,76.7,64.5,29.88,SSW,204,0.0,6.0,66,0.00,,,0.00,VWS V14.01,2013-09-09 07:58:00,
2013-09-09 03:00:00,76.7,64.1,29.88,SSW,203,0.0,6.0,65,0.00,,,0.00,VWS V14.01,2013-09-09 08:00:00,
2013-09-09 03:03:00,76.7,64.1,29.88,SSW,205,1.0,3.0,65,0.00,,,0.00,VWS V14.01,2013-09-09 08:03:00,
2013-09-09 03:08:00,76.7,64.1,29.88,SSW,206,0.0,3.0,65,0.00,,,0.00,VWS V14.01,2013-09-09 08:08:00,
2013-09-09 03:13:00,76.7,64.1,29.88,SE,133,0.0,4.0,65,0.00,,,0.00,VWS V14.01,2013-09-09 08:13:00,
2013-09-09 03:18:00,76.7,64.1,29.88,SE,133,0.0,4.0,65,0.00,,,0.00,VWS V14.01,2013-09-09 08:18:00,
2013-09-09 03:23:00,76.6,64.0,29.88,SE,141,0.0,4.0,65,0.00,,,0.00,VWS V14.01,2013-09-09 08:23:00,
2013-09-09 03:28:00,76.6,64.0,29.88,SE,141,0.0,4.0,65,0.00,,,0.00,VWS V14.01,2013-09-09 08:28:00,
2013-09-09 03:30:00,76.5,63.9,29.88,SE,141,1.0,4.0,65,0.00,,,0.00,VWS V14.01,2013-09-09 08:30:00,
2013-09-09 03:33:00,76.5,63.9,29.88,SE,142,0.0,1.0,65,0.00,,,0.00,VWS V14.01,2013-09-09 08:33:00,
2013-09-09 03:38:00,76.4,63.8,29.89,SE,141,0.0,1.0,65,0.00,,,0.00,VWS V14.01,2013-09-09 08:38:00,
2013-09-09 03:43:00,76.3,63.7,29.89,SE,142,1.0,1.0,65,0.00,,,0.00,VWS V14.01,2013-09-09 08:43:00,
2013-09-09 03:48:00,76.2,63.6,29.89,SE,141,0.0,1.0,65,0.00,,,0.00,VWS V14.01,2013-09-09 08:48:00,
2013-09-09 03:53:00,76.1,63.9,29.89,SE,142,0.0,1.0,66,0.00,,,0.00,VWS V14.01,2013-09-09 08:53:00,
2013-09-09 03:58:00,75.9,63.7,29.89,SE,142,0.0,4.0,66,0.00,,,0.00,VWS V14.01,2013-09-09 08:58:00,
2013-09-09 04:00:00,75.8,63.6,29.89,SE,142,0.0,4.0,66,0.00,,,0.00,VWS V14.01,2013-09-09 09:00:00,
2013-09-09 04:03:00,75.8,63.6,29.89,SE,142,0.0,1.0,66,0.00,,,0.00,VWS V14.01,2013-09-09 09:03:00,
2013-09-09 04:08:00,75.6,63.5,29.89,SE,142,0.0,1.0,66,0.00,,,0.00,VWS V14.01,2013-09-09 09:08:00,
2013-09-09 04:13:00,75.5,63.8,29.89,SE,142,0.0,1.0,67,0.00,,,0.00,VWS V14.01,2013-09-09 09:13:00,
2013-09-09 04:18:00,75.3,63.6,29.89,SE,142,0.0,1.0,67,0.00,,,0.00,VWS V14.01,2013-09-09 09:18:00,
2013-09-09 04:23:00,75.1,63.8,29.89,SE,142,0.0,1.0,68,0.00,,,0.00,VWS V14.01,2013-09-09 09:23:00,
2013-09-09 04:28:00,74.8,63.5,29.89,SE,142,0.0,1.0,68,0.00,,,0.00,VWS V14.01,2013-09-09 09:28:00,
2013-09-09 04:30:00,74.7,63.5,29.89,SE,142,0.0,1.0,68,0.00,,,0.00,VWS V14.01,2013-09-09 09:30:00,
2013-09-09 04:33:00,74.6,63.3,29.89,SE,142,0.0,0.0,68,0.00,,,0.00,VWS V14.01,2013-09-09 09:33:00,
2013-09-09 04:38:00,74.5,63.3,29.90,SE,142,0.0,1.0,68,0.00,,,0.00,VWS V14.01,2013-09-09 09:38:00,
2013-09-09 04:43:00,74.4,63.6,29.90,SE,142,0.0,1.0,69,0.00,,,0.00,VWS V14.01,2013-09-09 09:43:00,
2013-09-09 04:48:00,74.3,63.5,29.90,SSW,202,0.0,3.0,69,0.00,,,0.00,VWS V14.01,2013-09-09 09:48:00,
2013-09-09 04:53:00,74.2,63.0,29.90,SSW,202,0.0,3.0,68,0.00,,,0.00,VWS V14.01,2013-09-09 09:53:00,
2013-09-09 04:58:00,74.3,63.1,29.90,SSW,202,0.0,3.0,68,0.00,,,0.00,VWS V14.01,2013-09-09 09:58:00,
2013-09-09 05:00:00,74.3,63.5,29.90,SSW,202,0.0,3.0,69,0.00,,,0.00,VWS V14.01,2013-09-09 10:00:00,
2013-09-09 05:03:00,74.3,63.1,29.90,SSW,202,0.0,0.0,68,0.00,,,0.00,VWS V14.01,2013-09-09 10:03:00,
2013-09-09 05:08:00,74.3,63.1,29.90,SSW,199,0.0,1.0,68,0.00,,,0.00,VWS V14.01,2013-09-09 10:08:00,
2013-09-09 05:13:00,74.2,63.0,29.90,SSW,199,0.0,1.0,68,0.00,,,0.00,VWS V14.01,2013-09-09 10:13:00,
2013-09-09 05:18:00,74.2,63.0,29.90,SSW,199,0.0,1.0,68,0.00,,,0.00,VWS V14.01,2013-09-09 10:18:00,
2013-09-09 05:23:00,74.3,63.1,29.90,SSW,198,0.0,1.0,68,0.00,,,0.00,VWS V14.01,2013-09-09 10:23:00,
2013-09-09 05:28:00,74.2,63.0,29.90,SSW,198,0.0,1.0,68,0.00,,,0.00,VWS V14.01,2013-09-09 10:28:00,
2013-09-09 05:30:00,74.3,63.1,29.90,SSW,198,0.0,1.0,68,0.00,,,0.00,VWS V14.01,2013-09-09 10:30:00,
2013-09-09 05:33:00,74.3,63.5,29.90,SSW,198,0.0,0.0,69,0.00,,,0.00,VWS V14.01,2013-09-09 10:33:00,
2013-09-09 05:38:00,74.2,63.0,29.90,SSW,198,0.0,0.0,68,0.00,,,0.00,VWS V14.01,2013-09-09 10:38:00,
2013-09-09 05:43:00,74.1,63.3,29.90,SSW,198,0.0,0.0,69,0.00,,,0.00,VWS V14.01,2013-09-09 10:43:00,
2013-09-09 05:48:00,74.0,63.2,29.90,SSW,198,0.0,0.0,69,0.00,,,0.00,VWS V14.01,2013-09-09 10:48:00,
2013-09-09 05:53:00,73.8,63.0,29.90,SSW,198,0.0,0.0,69,0.00,,,0.00,VWS V14.01,2013-09-09 10:53:00,
2013-09-09 05:58:00,73.6,62.8,29.91,SSW,198,0.0,0.0,69,0.00,,,0.00,VWS V14.01,2013-09-09 10:58:00,
2013-09-09 06:00:00,73.5,62.7,29.91,SSW,198,0.0,0.0,69,0.00,,,0.00,VWS V14.01,2013-09-09 11:00:00,
2013-09-09 06:04:00,73.5,63.1,29.91,SSW,198,0.0,0.0,70,0.00,,,0.00,VWS V14.01,2013-09-09 11:04:00,
2013-09-09 06:09:00,73.2,62.8,29.91,SSW,198,0.0,0.0,70,0.00,,,0.00,VWS V14.01,2013-09-09 11:09:00,
2013-09-09 06:14:00,73.0,62.7,29.91,SSW,198,0.0,0.0,70,0.00,,,0.00,VWS V14.01,2013-09-09 11:14:00,
2013-09-09 06:19:00,72.6,62.7,29.91,SSW,198,0.0,0.0,71,0.00,,,0.00,VWS V14.01,2013-09-09 11:19:00,
2013-09-09 06:24:00,72.3,62.8,29.91,SSW,198,0.0,0.0,72,0.00,,,0.00,VWS V14.01,2013-09-09 11:24:00,
2013-09-09 06:29:00,72.1,62.6,29.92,SSW,198,0.0,0.0,72,0.00,,,0.00,VWS V14.01,2013-09-09 11:29:00,
2013-09-09 06:30:00,71.9,62.4,29.92,SSW,198,0.0,0.0,72,0.00,,,0.00,VWS V14.01,2013-09-09 11:30:00,
2013-09-09 06:34:00,71.8,62.3,29.92,SSW,198,0.0,0.0,72,0.00,,,0.00,VWS V14.01,2013-09-09 11:34:00,
2013-09-09 06:39:00,71.5,62.0,29.92,SSW,198,0.0,0.0,72,0.00,,,0.00,VWS V14.01,2013-09-09 11:39:00,
2013-09-09 06:44:00,71.2,62.1,29.92,SSW,198,0.0,0.0,73,0.00,,,0.00,VWS V14.01,2013-09-09 11:44:00,
2013-09-09 06:49:00,70.9,62.2,29.92,SSW,198,0.0,0.0,74,0.00,,,0.00,VWS V14.01,2013-09-09 11:49:00,
2013-09-09 06:54:00,70.5,61.8,29.92,SSW,198,0.0,0.0,74,0.00,,,0.00,VWS V14.01,2013-09-09 11:54:00,
2013-09-09 06:59:00,70.1,61.8,29.92,SSW,198,0.0,0.0,75,0.00,,,0.00,VWS V14.01,2013-09-09 11:59:00,
2013-09-09 07:00:00,69.9,62.0,29.92,SSW,198,0.0,0.0,76,0.00,,,0.00,VWS V14.01,2013-09-09 12:00:00,
2013-09-09 07:04:00,69.8,61.5,29.92,SSW,198,0.0,0.0,75,0.00,,,0.00,VWS V14.01,2013-09-09 12:04:00,
2013-09-09 07:09:00,69.5,61.6,29.92,SSW,198,0.0,0.0,76,0.00,,,0.00,VWS V14.01,2013-09-09 12:09:00,
2013-09-09 07:14:00,69.3,61.4,29.92,SSW,198,0.0,0.0,76,0.00,,,0.00,VWS V14.01,2013-09-09 12:14:00,
2013-09-09 07:19:00,69.0,61.5,29.93,SSW,198,0.0,0.0,77,0.00,,,0.00,VWS V14.01,2013-09-09 12:19:00,
2013-09-09 07:24:00,68.8,61.3,29.93,SSW,198,0.0,0.0,77,0.00,,,0.00,VWS V14.01,2013-09-09 12:24:00,
2013-09-09 07:29:00,68.6,61.1,29.93,SSW,198,0.0,0.0,77,0.00,,,0.00,VWS V14.01,2013-09-09 12:29:00,
2013-09-09 07:30:00,68.5,61.4,29.93,SSW,198,0.0,0.0,78,0.00,,,0.00,VWS V14.01,2013-09-09 12:30:00,
2013-09-09 07:34:00,68.4,61.3,29.93,SSW,198,0.0,0.0,78,0.00,,,0.00,VWS V14.01,2013-09-09 12:34:00,
2013-09-09 07:39:00,68.3,61.9,29.93,SSW,198,0.0,0.0,80,0.00,,,0.00,VWS V14.01,2013-09-09 12:39:00,
2013-09-09 07:44:00,68.1,62.1,29.93,SSW,198,0.0,0.0,81,0.00,,,0.00,VWS V14.01,2013-09-09 12:44:00,
2013-09-09 07:49:00,68.0,62.0,29.93,SSW,198,0.0,0.0,81,0.00,,,0.00,VWS V14.01,2013-09-09 12:49:00,
2013-09-09 07:54:00,68.0,62.7,29.94,SSW,198,0.0,0.0,83,0.00,,,0.00,VWS V14.01,2013-09-09 12:54:00,
2013-09-09 07:59:00,68.1,63.1,29.93,SSW,198,0.0,0.0,84,0.00,,,0.00,VWS V14.01,2013-09-09 12:59:00,
2013-09-09 08:00:00,68.3,63.3,29.94,SSW,198,0.0,0.0,84,0.00,,,0.00,VWS V14.01,2013-09-09 13:00:00,
2013-09-09 08:04:00,68.4,63.4,29.93,South,187,0.0,0.0,84,0.00,,,0.00,VWS V14.01,2013-09-09 13:04:00,
2013-09-09 08:09:00,69.3,63.9,29.94,ESE,109,0.0,2.0,83,0.00,,,0.00,VWS V14.01,2013-09-09 13:09:00,
2013-09-09 08:14:00,70.7,64.2,29.93,ESE,109,0.0,2.0,80,0.00,,,0.00,VWS V14.01,2013-09-09 13:14:00,
2013-09-09 08:19:00,72.1,64.5,29.93,South,182,0.0,5.0,77,0.00,,,0.00,VWS V14.01,2013-09-09 13:19:00,
2013-09-09 08:24:00,73.5,64.7,29.94,South,173,0.0,5.0,74,0.00,,,0.00,VWS V14.01,2013-09-09 13:24:00,
2013-09-09 08:29:00,74.5,64.9,29.94,South,169,0.0,5.0,72,0.00,,,0.00,VWS V14.01,2013-09-09 13:29:00,
2013-09-09 08:30:00,75.0,65.0,29.94,South,169,0.0,5.0,71,0.00,,,0.00,VWS V14.01,2013-09-09 13:30:00,
2013-09-09 08:34:00,75.3,65.3,29.94,South,169,0.0,4.0,71,0.00,,,0.00,VWS V14.01,2013-09-09 13:34:00,
2013-09-09 08:39:00,75.6,65.1,29.94,South,173,0.0,6.0,70,0.00,,,0.00,VWS V14.01,2013-09-09 13:39:00,
2013-09-09 08:44:00,75.8,65.3,29.94,SSE,164,0.0,6.0,70,0.00,,,0.00,VWS V14.01,2013-09-09 13:44:00,
2013-09-09 08:49:00,76.0,65.5,29.94,SSW,204,0.0,6.0,70,0.00,,,0.00,VWS V14.01,2013-09-09 13:49:00,
2013-09-09 08:54:00,76.3,65.8,29.94,SSW,203,0.0,6.0,70,0.00,,,0.00,VWS V14.01,2013-09-09 13:54:00,
2013-09-09 08:59:00,76.7,66.2,29.94,SSW,203,0.0,6.0,70,0.00,,,0.00,VWS V14.01,2013-09-09 13:59:00,
2013-09-09 09:00:00,77.0,66.5,29.94,SSW,202,4.0,6.0,70,0.00,,,0.00,VWS V14.01,2013-09-09 14:00:00,
2013-09-09 09:04:00,77.2,66.2,29.94,SSW,200,0.0,4.0,69,0.00,,,0.00,VWS V14.01,2013-09-09 14:04:00,
2013-09-09 09:09:00,77.8,66.8,29.95,SSW,192,0.0,4.0,69,0.00,,,0.00,VWS V14.01,2013-09-09 14:09:00,
2013-09-09 09:14:00,78.4,67.0,29.95,SSW,193,0.0,6.0,68,0.00,,,0.00,VWS V14.01,2013-09-09 14:14:00,
2013-09-09 09:19:00,78.9,67.0,29.95,SSW,198,0.0,7.0,67,0.00,,,0.00,VWS V14.01,2013-09-09 14:19:00,
2013-09-09 09:24:00,79.5,67.6,29.95,SSW,198,0.0,7.0,67,0.00,,,0.00,VWS V14.01,2013-09-09 14:24:00,
2013-09-09 09:29:00,80.1,67.7,29.95,SW,218,0.0,7.0,66,0.00,,,0.00,VWS V14.01,2013-09-09 14:29:00,
2013-09-09 09:30:00,80.7,68.3,29.95,SW,218,0.0,7.0,66,0.00,,,0.00,VWS V14.01,2013-09-09 14:30:00,
2013-09-09 09:34:00,81.3,68.0,29.95,South,190,4.0,6.0,64,0.00,,,0.00,VWS V14.01,2013-09-09 14:34:00,
2013-09-09 09:39:00,82.7,68.8,29.95,SSW,209,0.0,8.0,63,0.00,,,0.00,VWS V14.01,2013-09-09 14:39:00,
2013-09-09 09:44:00,83.9,69.0,29.95,SSW,209,0.0,8.0,61,0.00,,,0.00,VWS V14.01,2013-09-09 14:44:00,
2013-09-09 09:49:00,85.0,69.6,29.95,SSW,208,0.0,8.0,60,0.00,,,0.00,VWS V14.01,2013-09-09 14:49:00,
2013-09-09 09:54:00,85.8,69.3,29.95,SSW,208,0.0,8.0,58,0.00,,,0.00,VWS V14.01,2013-09-09 14:54:00,
2013-09-09 09:59:00,86.6,69.6,29.95,SSW,209,0.0,8.0,57,0.00,,,0.00,VWS V14.01,2013-09-09 14:59:00,
2013-09-09 10:00:00,86.8,70.3,29.95,SSW,209,0.0,8.0,58,0.00,,,0.00,VWS V14.01,2013-09-09 15:00:00,
2013-09-09 10:04:00,87.2,70.1,29.95,SSW,209,0.0,0.0,57,0.00,,,0.00,VWS V14.01,2013-09-09 15:04:00,
2013-09-09 10:09:00,88.1,70.4,29.95,SSW,209,0.0,2.0,56,0.00,,,0.00,VWS V14.01,2013-09-09 15:09:00,
2013-09-09 10:14:00,88.6,70.4,29.95,SSW,206,0.0,4.0,55,0.00,,,0.00,VWS V14.01,2013-09-09 15:14:00,
2013-09-09 10:19:00,89.6,71.3,29.95,SSW,206,0.0,4.0,55,0.00,,,0.00,VWS V14.01,2013-09-09 15:19:00,
2013-09-09 10:24:00,90.5,69.9,29.95,SE,125,1.0,6.0,51,0.00,,,0.00,VWS V14.01,2013-09-09 15:24:00,
2013-09-09 10:29:00,90.5,69.9,29.95,SSW,192,2.0,8.0,51,0.00,,,0.00,VWS V14.01,2013-09-09 15:29:00,
2013-09-09 10:30:00,90.6,70.6,29.95,NW,323,0.0,8.0,52,0.00,,,0.00,VWS V14.01,2013-09-09 15:30:00,
2013-09-09 10:34:00,90.7,69.5,29.95,SE,127,5.0,7.0,50,0.00,,,0.00,VWS V14.01,2013-09-09 15:34:00,
2013-09-09 10:39:00,90.9,70.3,29.95,NNW,342,1.0,11.0,51,0.00,,,0.00,VWS V14.01,2013-09-09 15:39:00,
2013-09-09 10:44:00,91.2,70.6,29.95,SE,125,6.0,11.0,51,0.00,,,0.00,VWS V14.01,2013-09-09 15:44:00,
2013-09-09 10:49:00,91.6,70.9,29.96,North,360,2.0,11.0,51,0.00,,,0.00,VWS V14.01,2013-09-09 15:49:00,
2013-09-09 10:54:00,91.8,70.5,29.95,SE,130,3.0,11.0,50,0.00,,,0.00,VWS V14.01,2013-09-09 15:54:00,
2013-09-09 10:59:00,91.9,70.0,29.95,WSW,242,2.0,11.0,49,0.00,,,0.00,VWS V14.01,2013-09-09 15:59:00,
2013-09-09 11:00:00,91.8,71.1,29.95,SSE,149,0.0,11.0,51,0.00,,,0.00,VWS V14.01,2013-09-09 16:00:00,
2013-09-09 11:04:00,92.0,70.1,29.95,SSE,152,0.0,2.0,49,0.00,,,0.00,VWS V14.01,2013-09-09 16:04:00,
2013-09-09 11:09:00,92.3,71.0,29.95,SE,126,2.0,9.0,50,0.00,,,0.00,VWS V14.01,2013-09-09 16:09:00,
2013-09-09 11:14:00,92.5,71.2,29.95,SSW,196,0.0,9.0,50,0.00,,,0.00,VWS V14.01,2013-09-09 16:14:00,
2013-09-09 11:19:00,93.6,70.3,29.95,SSW,195,0.0,9.0,47,0.00,,,0.00,VWS V14.01,2013-09-09 16:19:00,
2013-09-09 11:24:00,94.2,69.6,29.95,South,191,0.0,9.0,45,0.00,,,0.00,VWS V14.01,2013-09-09 16:24:00,
2013-09-09 11:29:00,93.9,70.0,29.95,ESE,102,2.0,9.0,46,0.00,,,0.00,VWS V14.01,2013-09-09 16:29:00,
2013-09-09 11:30:00,93.8,69.9,29.95,SSE,157,0.0,9.0,46,0.00,,,0.00,VWS V14.01,2013-09-09 16:30:00,
2013-09-09 11:34:00,93.8,69.9,29.95,ESE,107,1.0,6.0,46,0.00,,,0.00,VWS V14.01,2013-09-09 16:34:00,
2013-09-09 11:39:00,93.9,70.0,29.95,SW,217,1.0,7.0,46,0.00,,,0.00,VWS V14.01,2013-09-09 16:39:00,
2013-09-09 11:44:00,94.4,70.4,29.95,SSE,147,1.0,7.0,46,0.00,,,0.00,VWS V14.01,2013-09-09 16:44:00,
2013-09-09 11:49:00,94.6,69.3,29.95,ESE,110,0.0,9.0,44,0.00,,,0.00,VWS V14.01,2013-09-09 16:49:00,
2013-09-09 11:54:00,94.7,70.1,29.95,WSW,254,0.0,9.0,45,0.00,,,0.00,VWS V14.01,2013-09-09 16:54:00,
2013-09-09 11:59:00,94.8,68.8,29.95,SW,219,4.0,9.0,43,0.00,,,0.00,VWS V14.01,2013-09-09 16:59:00,
2013-09-09 12:00:00,94.7,70.1,29.95,SE,138,2.0,9.0,45,0.00,,,0.00,VWS V14.01,2013-09-09 17:00:00,
2013-09-09 12:04:00,94.7,68.7,29.96,SSW,200,2.0,7.0,43,0.00,,,0.00,VWS V14.01,2013-09-09 17:04:00,
2013-09-09 12:09:00,94.5,68.6,29.95,SSE,164,1.0,8.0,43,0.00,,,0.00,VWS V14.01,2013-09-09 17:09:00,
2013-09-09 12:14:00,94.5,69.9,29.95,SE,140,1.0,8.0,45,0.00,,,0.00,VWS V14.01,2013-09-09 17:14:00,
2013-09-09 12:19:00,94.7,70.1,29.95,SE,131,1.0,8.0,45,0.00,,,0.00,VWS V14.01,2013-09-09 17:19:00,
2013-09-09 12:24:00,95.0,69.7,29.95,SW,220,2.0,8.0,44,0.00,,,0.00,VWS V14.01,2013-09-09 17:24:00,
2013-09-09 12:29:00,94.9,69.6,29.95,South,182,0.0,8.0,44,0.00,,,0.00,VWS V14.01,2013-09-09 17:29:00,
2013-09-09 12:30:00,95.1,69.1,29.95,SE,131,5.0,8.0,43,0.00,,,0.00,VWS V14.01,2013-09-09 17:30:00,
2013-09-09 12:34:00,95.2,69.2,29.95,ESE,123,0.0,6.0,43,0.00,,,0.00,VWS V14.01,2013-09-09 17:34:00,
2013-09-09 12:39:00,95.2,70.5,29.95,SSE,150,4.0,6.0,45,0.00,,,0.00,VWS V14.01,2013-09-09 17:39:00,
2013-09-09 12:44:00,95.3,69.3,29.95,South,186,1.0,9.0,43,0.00,,,0.00,VWS V14.01,2013-09-09 17:44:00,
2013-09-09 12:49:00,95.2,69.9,29.95,ESE,119,0.0,9.0,44,0.00,,,0.00,VWS V14.01,2013-09-09 17:49:00,
2013-09-09 12:54:00,95.3,70.0,29.95,ESE,111,2.0,9.0,44,0.00,,,0.00,VWS V14.01,2013-09-09 17:54:00,
2013-09-09 12:59:00,94.9,70.2,29.94,SE,130,0.0,10.0,45,0.00,,,0.00,VWS V14.01,2013-09-09 17:59:00,
2013-09-09 13:00:00,94.9,69.6,29.94,ESE,119,4.0,10.0,44,0.00,,,0.00,VWS V14.01,2013-09-09 18:00:00,
2013-09-09 13:04:00,94.9,68.9,29.95,WSW,254,0.0,11.0,43,0.00,,,0.00,VWS V14.01,2013-09-09 18:04:00,
2013-09-09 13:09:00,95.4,70.7,29.94,SSW,210,4.0,11.0,45,0.00,,,0.00,VWS V14.01,2013-09-09 18:09:00,
2013-09-09 13:14:00,95.9,69.8,29.94,ESE,122,8.0,11.0,43,0.00,,,0.00,VWS V14.01,2013-09-09 18:14:00,
2013-09-09 13:19:00,95.7,68.9,29.94,WSW,241,8.0,11.0,42,0.00,,,0.00,VWS V14.01,2013-09-09 18:19:00,
2013-09-09 13:25:00,94.9,69.6,29.94,SE,128,4.0,11.0,44,0.00,,,0.00,VWS V14.01,2013-09-09 18:25:00,
2013-09-09 13:29:00,94.8,69.5,29.94,SSW,212,0.0,11.0,44,0.00,,,0.00,VWS V14.01,2013-09-09 18:29:00,
2013-09-09 13:35:00,95.9,69.8,29.94,South,190,5.0,9.0,43,0.00,,,0.00,VWS V14.01,2013-09-09 18:35:00,
2013-09-09 13:40:00,96.2,70.1,29.94,South,191,7.0,10.0,43,0.00,,,0.00,VWS V14.01,2013-09-09 18:40:00,
2013-09-09 13:45:00,96.5,69.7,29.94,East,98,2.0,10.0,42,0.00,,,0.00,VWS V14.01,2013-09-09 18:45:00,
2013-09-09 13:50:00,96.7,67.7,29.94,East,91,4.0,10.0,39,0.00,,,0.00,VWS V14.01,2013-09-09 18:50:00,
2013-09-09 13:55:00,96.5,69.0,29.93,West,269,4.0,10.0,41,0.00,,,0.00,VWS V14.01,2013-09-09 18:55:00,
2013-09-09 14:00:00,96.6,69.1,29.93,SW,223,5.0,10.0,41,0.00,,,0.00,VWS V14.01,2013-09-09 19:00:00,
2013-09-09 14:05:00,96.7,68.4,29.93,East,93,0.0,6.0,40,0.00,,,0.00,VWS V14.01,2013-09-09 19:05:00,
2013-09-09 14:10:00,96.5,68.2,29.93,SSW,211,1.0,7.0,40,0.00,,,0.00,VWS V14.01,2013-09-09 19:10:00,
2013-09-09 14:15:00,96.5,68.2,29.93,SW,214,4.0,18.0,40,0.00,,,0.00,VWS V14.01,2013-09-09 19:15:00,
2013-09-09 14:20:00,96.2,68.0,29.93,ESE,110,5.0,18.0,40,0.00,,,0.00,VWS V14.01,2013-09-09 19:20:00,
2013-09-09 14:25:00,95.9,67.7,29.93,South,191,2.0,18.0,40,0.00,,,0.00,VWS V14.01,2013-09-09 19:25:00,
2013-09-09 14:30:00,96.0,67.8,29.92,SSW,203,5.0,18.0,40,0.00,,,0.00,VWS V14.01,2013-09-09 19:30:00,
2013-09-09 14:35:00,96.3,68.8,29.92,SE,140,1.0,6.0,41,0.00,,,0.00,VWS V14.01,2013-09-09 19:35:00,
2013-09-09 14:40:00,96.7,69.8,29.92,South,190,4.0,10.0,42,0.00,,,0.00,VWS V14.01,2013-09-09 19:40:00,
2013-09-09 14:45:00,96.7,67.7,29.92,SE,134,5.0,10.0,39,0.00,,,0.00,VWS V14.01,2013-09-09 19:45:00,
2013-09-09 14:50:00,96.6,68.3,29.92,SSE,148,6.0,10.0,40,0.00,,,0.00,VWS V14.01,2013-09-09 19:50:00,
2013-09-09 14:55:00,96.7,69.1,29.92,SSE,154,0.0,10.0,41,0.00,,,0.00,VWS V14.01,2013-09-09 19:55:00,
2013-09-09 15:00:00,97.0,69.4,29.92,West,270,5.0,10.0,41,0.00,,,0.00,VWS V14.01,2013-09-09 20:00:00,
2013-09-09 15:05:00,96.4,68.2,29.91,SSW,196,1.0,6.0,40,0.00,,,0.00,VWS V14.01,2013-09-09 20:05:00,
2013-09-09 15:10:00,95.2,67.8,29.91,SSW,207,0.0,11.0,41,0.00,,,0.00,VWS V14.01,2013-09-09 20:10:00,
2013-09-09 15:15:00,95.0,66.9,29.91,SW,225,6.0,11.0,40,0.00,,,0.00,VWS V14.01,2013-09-09 20:15:00,
2013-09-09 15:20:00,96.2,68.0,29.91,South,180,2.0,11.0,40,0.00,,,0.00,VWS V14.01,2013-09-09 20:20:00,
2013-09-09 15:25:00,96.8,68.5,29.90,SE,136,1.0,11.0,40,0.00,,,0.00,VWS V14.01,2013-09-09 20:25:00,
2013-09-09 15:30:00,96.8,67.8,29.90,NE,44,5.0,11.0,39,0.00,,,0.00,VWS V14.01,2013-09-09 20:30:00,
2013-09-09 15:35:00,97.0,67.9,29.90,SE,134,0.0,10.0,39,0.00,,,0.00,VWS V14.01,2013-09-09 20:35:00,
2013-09-09 15:40:00,97.4,68.3,29.90,SW,232,1.0,10.0,39,0.00,,,0.00,VWS V14.01,2013-09-09 20:40:00,
2013-09-09 15:45:00,96.9,67.9,29.90,ESE,117,1.0,10.0,39,0.00,,,0.00,VWS V14.01,2013-09-09 20:45:00,
2013-09-09 15:50:00,95.3,67.2,29.90,ESE,111,1.0,10.0,40,0.00,,,0.00,VWS V14.01,2013-09-09 20:50:00,
2013-09-09 15:55:00,95.2,68.5,29.90,WSW,244,1.0,10.0,42,0.00,,,0.00,VWS V14.01,2013-09-09 20:55:00,
2013-09-09 16:00:00,95.1,67.7,29.90,SSW,199,0.0,10.0,41,0.00,,,0.00,VWS V14.01,2013-09-09 21:00:00,
2013-09-09 16:05:00,94.7,67.4,29.89,SSW,197,0.0,5.0,41,0.00,,,0.00,VWS V14.01,2013-09-09 21:05:00,
2013-09-09 16:10:00,95.6,66.7,29.89,South,173,4.0,7.0,39,0.00,,,0.00,VWS V14.01,2013-09-09 21:10:00,
2013-09-09 16:15:00,96.2,67.2,29.89,SSW,210,8.0,10.0,39,0.00,,,0.00,VWS V14.01,2013-09-09 21:15:00,
2013-09-09 16:20:00,96.1,67.2,29.89,SE,146,0.0,10.0,39,0.00,,,0.00,VWS V14.01,2013-09-09 21:20:00,
2013-09-09 16:25:00,96.1,67.2,29.89,South,169,0.0,11.0,39,0.00,,,0.00,VWS V14.01,2013-09-09 21:25:00,
2013-09-09 16:30:00,96.2,66.5,29.89,SSW,193,1.0,12.0,38,0.00,,,0.00,VWS V14.01,2013-09-09 21:30:00,
2013-09-09 16:35:00,95.8,66.1,29.89,ESE,108,2.0,3.0,38,0.00,,,0.00,VWS V14.01,2013-09-09 21:35:00,
2013-09-09 16:40:00,95.7,66.1,29.89,SSW,211,0.0,9.0,38,0.00,,,0.00,VWS V14.01,2013-09-09 21:40:00,
2013-09-09 16:45:00,95.2,66.4,29.88,ESE,122,0.0,9.0,39,0.00,,,0.00,VWS V14.01,2013-09-09 21:45:00,
2013-09-09 16:50:00,95.0,66.2,29.88,SW,232,1.0,9.0,39,0.00,,,0.00,VWS V14.01,2013-09-09 21:50:00,
2013-09-09 16:55:00,96.0,66.3,29.88,SSE,152,0.0,9.0,38,0.00,,,0.00,VWS V14.01,2013-09-09 21:55:00,
2013-09-09 17:00:00,96.7,66.2,29.88,ESE,103,1.0,9.0,37,0.00,,,0.00,VWS V14.01,2013-09-09 22:00:00,
2013-09-09 17:05:00,96.7,66.9,29.88,East,94,1.0,6.0,38,0.00,,,0.00,VWS V14.01,2013-09-09 22:05:00,
2013-09-09 17:10:00,96.6,66.8,29.88,ESE,105,2.0,6.0,38,0.00,,,0.00,VWS V14.01,2013-09-09 22:10:00,
2013-09-09 17:15:00,96.5,66.0,29.88,SE,145,1.0,6.0,37,0.00,,,0.00,VWS V14.01,2013-09-09 22:15:00,
2013-09-09 17:20:00,96.3,66.6,29.88,ENE,67,0.0,6.0,38,0.00,,,0.00,VWS V14.01,2013-09-09 22:20:00,
2013-09-09 17:25:00,96.6,66.1,29.88,SSW,213,2.0,6.0,37,0.00,,,0.00,VWS V14.01,2013-09-09 22:25:00,
2013-09-09 17:30:00,96.8,65.5,29.88,SW,214,1.0,7.0,36,0.00,,,0.00,VWS V14.01,2013-09-09 22:30:00,
2013-09-09 17:35:00,96.0,64.8,29.88,SW,236,3.0,10.0,36,0.00,,,0.00,VWS V14.01,2013-09-09 22:35:00,
2013-09-09 17:40:00,95.3,65.7,29.88,South,186,0.0,10.0,38,0.00,,,0.00,VWS V14.01,2013-09-09 22:40:00,
2013-09-09 17:45:00,94.8,65.3,29.87,SW,233,0.0,10.0,38,0.00,,,0.00,VWS V14.01,2013-09-09 22:45:00,
2013-09-09 17:50:00,94.5,65.7,29.87,ESE,123,0.0,10.0,39,0.00,,,0.00,VWS V14.01,2013-09-09 22:50:00,
2013-09-09 17:55:00,94.2,65.5,29.87,East,90,2.0,10.0,39,0.00,,,0.00,VWS V14.01,2013-09-09 22:55:00,
2013-09-09 18:00:00,93.9,65.2,29.87,SSW,209,1.0,10.0,39,0.00,,,0.00,VWS V14.01,2013-09-09 23:00:00,
2013-09-09 18:05:00,93.6,64.9,29.88,SSE,148,0.0,6.0,39,0.00,,,0.00,VWS V14.01,2013-09-09 23:05:00,
2013-09-09 18:10:00,93.3,64.7,29.88,SSE,163,0.0,8.0,39,0.00,,,0.00,VWS V14.01,2013-09-09 23:10:00,
2013-09-09 18:15:00,93.1,64.5,29.88,SSW,203,0.0,8.0,39,0.00,,,0.00,VWS V14.01,2013-09-09 23:15:00,
2013-09-09 18:20:00,92.9,64.3,29.88,SSW,202,1.0,8.0,39,0.00,,,0.00,VWS V14.01,2013-09-09 23:20:00,
2013-09-09 18:25:00,92.7,64.1,29.88,SSE,150,1.0,8.0,39,0.00,,,0.00,VWS V14.01,2013-09-09 23:25:00,
2013-09-09 18:30:00,92.5,64.7,29.88,SE,146,0.0,8.0,40,0.00,,,0.00,VWS V14.01,2013-09-09 23:30:00,
2013-09-09 18:35:00,92.3,64.5,29.88,SSW,212,1.0,8.0,40,0.00,,,0.00,VWS V14.01,2013-09-09 23:35:00,
2013-09-09 18:40:00,92.1,64.3,29.88,WSW,248,0.0,8.0,40,0.00,,,0.00,VWS V14.01,2013-09-09 23:40:00,
2013-09-09 18:45:00,91.9,64.9,29.88,WSW,248,0.0,8.0,41,0.00,,,0.00,VWS V14.01,2013-09-09 23:45:00,
2013-09-09 18:50:00,91.6,64.6,29.88,SW,219,0.0,8.0,41,0.00,,,0.00,VWS V14.01,2013-09-09 23:50:00,
2013-09-09 18:55:00,91.3,64.3,29.87,SW,218,0.0,8.0,41,0.00,,,0.00,VWS V14.01,2013-09-09 23:55:00,
2013-09-09 19:00:00,91.1,64.8,29.87,SW,219,0.0,8.0,42,0.00,,,0.00,VWS V14.01,2013-09-10 00:00:00,
2013-09-09 19:05:00,90.8,65.2,29.87,SW,219,0.0,0.0,43,0.00,,,0.00,VWS V14.01,2013-09-10 00:05:00,
2013-09-09 19:10:00,90.5,65.0,29.87,SW,219,0.0,0.0,43,0.00,,,0.00,VWS V14.01,2013-09-10 00:10:00,
2013-09-09 19:15:00,90.1,65.3,29.87,SW,218,0.0,0.0,44,0.00,,,0.00,VWS V14.01,2013-09-10 00:15:00,
2013-09-09 19:20:00,89.7,65.6,29.88,SW,219,0.0,0.0,45,0.00,,,0.00,VWS V14.01,2013-09-10 00:20:00,
2013-09-09 19:25:00,89.1,65.6,29.88,SW,219,0.0,0.0,46,0.00,,,0.00,VWS V14.01,2013-09-10 00:25:00,
2013-09-09 19:30:00,88.6,65.8,29.87,SW,218,0.0,0.0,47,0.00,,,0.00,VWS V14.01,2013-09-10 00:30:00,
2013-09-09 19:35:00,88.0,65.9,29.87,SW,218,0.0,0.0,48,0.00,,,0.00,VWS V14.01,2013-09-10 00:35:00,
2013-09-09 19:40:00,87.4,65.3,29.88,SW,218,0.0,0.0,48,0.00,,,0.00,VWS V14.01,2013-09-10 00:40:00,
2013-09-09 19:45:00,86.7,65.3,29.88,SW,219,0.0,0.0,49,0.00,,,0.00,VWS V14.01,2013-09-10 00:45:00,
2013-09-09 19:50:00,86.1,65.3,29.88,SW,218,0.0,0.0,50,0.00,,,0.00,VWS V14.01,2013-09-10 00:50:00,
2013-09-09 19:55:00,85.5,66.4,29.88,SW,218,0.0,0.0,53,0.00,,,0.00,VWS V14.01,2013-09-10 00:55:00,
2013-09-09 20:00:00,84.9,65.9,29.88,SW,219,0.0,0.0,53,0.00,,,0.00,VWS V14.01,2013-09-10 01:00:00,
2013-09-09 20:05:00,84.3,65.9,29.88,SW,218,0.0,0.0,54,0.00,,,0.00,VWS V14.01,2013-09-10 01:05:00,
2013-09-09 20:10:00,83.7,65.8,29.88,SW,218,0.0,0.0,55,0.00,,,0.00,VWS V14.01,2013-09-10 01:10:00,
2013-09-09 20:15:00,83.2,65.4,29.88,SW,218,0.0,0.0,55,0.00,,,0.00,VWS V14.01,2013-09-10 01:15:00,
2013-09-09 20:20:00,82.6,65.3,29.88,SW,219,0.0,0.0,56,0.00,,,0.00,VWS V14.01,2013-09-10 01:20:00,
2013-09-09 20:25:00,82.1,65.4,29.89,SW,219,0.0,0.0,57,0.00,,,0.00,VWS V14.01,2013-09-10 01:25:00,
2013-09-09 20:30:00,81.6,64.9,29.89,SW,219,0.0,0.0,57,0.00,,,0.00,VWS V14.01,2013-09-10 01:30:00,
2013-09-09 20:35:00,81.2,66.0,29.89,SW,219,0.0,0.0,60,0.00,,,0.00,VWS V14.01,2013-09-10 01:35:00,
2013-09-09 20:41:00,80.9,66.2,29.89,SW,219,0.0,0.0,61,0.00,,,0.00,VWS V14.01,2013-09-10 01:41:00,
2013-09-09 20:46:00,80.5,66.3,29.89,SW,218,0.0,0.0,62,0.00,,,0.00,VWS V14.01,2013-09-10 01:46:00,
2013-09-09 20:51:00,80.1,65.9,29.90,SW,218,0.0,0.0,62,0.00,,,0.00,VWS V14.01,2013-09-10 01:51:00,
2013-09-09 20:56:00,79.8,65.6,29.90,SW,219,0.0,0.0,62,0.00,,,0.00,VWS V14.01,2013-09-10 01:56:00,
2013-09-09 21:00:00,79.4,65.7,29.90,SW,218,0.0,0.0,63,0.00,,,0.00,VWS V14.01,2013-09-10 02:00:00,
2013-09-09 21:01:00,79.5,65.8,29.90,SW,219,0.0,0.0,63,0.00,,,0.00,VWS V14.01,2013-09-10 02:01:00,
2013-09-09 21:06:00,79.2,65.5,29.90,SW,219,0.0,0.0,63,0.00,,,0.00,VWS V14.01,2013-09-10 02:06:00,
2013-09-09 21:11:00,78.9,65.2,29.90,SW,219,0.0,0.0,63,0.00,,,0.00,VWS V14.01,2013-09-10 02:11:00,
2013-09-09 21:16:00,78.7,65.1,29.90,SW,218,0.0,0.0,63,0.00,,,0.00,VWS V14.01,2013-09-10 02:16:00,
2013-09-09 21:21:00,78.4,65.2,29.90,SW,218,0.0,0.0,64,0.00,,,0.00,VWS V14.01,2013-09-10 02:21:00,
2013-09-09 21:26:00,78.0,65.3,29.90,SW,218,0.0,0.0,65,0.00,,,0.00,VWS V14.01,2013-09-10 02:26:00,
2013-09-09 21:30:00,77.7,65.0,29.91,SW,219,0.0,0.0,65,0.00,,,0.00,VWS V14.01,2013-09-10 02:30:00,
2013-09-09 21:31:00,77.7,65.0,29.91,SW,218,0.0,0.0,65,0.00,,,0.00,VWS V14.01,2013-09-10 02:31:00,
2013-09-09 21:36:00,77.5,64.8,29.91,SW,219,0.0,0.0,65,0.00,,,0.00,VWS V14.01,2013-09-10 02:36:00,
2013-09-09 21:41:00,77.2,65.0,29.91,SW,219,0.0,0.0,66,0.00,,,0.00,VWS V14.01,2013-09-10 02:41:00,
2013-09-09 21:46:00,77.0,65.2,29.91,SW,219,0.0,0.0,67,0.00,,,0.00,VWS V14.01,2013-09-10 02:46:00,
2013-09-09 21:51:00,76.7,65.3,29.91,SW,218,0.0,0.0,68,0.00,,,0.00,VWS V14.01,2013-09-10 02:51:00,
2013-09-09 21:56:00,76.5,65.6,29.92,SW,219,0.0,0.0,69,0.00,,,0.00,VWS V14.01,2013-09-10 02:56:00,
2013-09-09 22:00:00,76.3,65.4,29.92,SW,219,0.0,0.0,69,0.00,,,0.00,VWS V14.01,2013-09-10 03:00:00,
2013-09-09 22:01:00,76.3,65.4,29.92,SW,218,0.0,0.0,69,0.00,,,0.00,VWS V14.01,2013-09-10 03:01:00,
2013-09-09 22:06:00,76.1,65.6,29.92,SW,218,0.0,0.0,70,0.00,,,0.00,VWS V14.01,2013-09-10 03:06:00,
2013-09-09 22:11:00,76.0,65.5,29.92,SW,218,0.0,0.0,70,0.00,,,0.00,VWS V14.01,2013-09-10 03:11:00,
2013-09-09 22:16:00,75.8,64.9,29.92,SW,218,0.0,0.0,69,0.00,,,0.00,VWS V14.01,2013-09-10 03:16:00,
2013-09-09 22:21:00,75.6,65.1,29.92,SW,219,0.0,0.0,70,0.00,,,0.00,VWS V14.01,2013-09-10 03:21:00,
2013-09-09 22:26:00,75.4,65.3,29.92,SW,218,0.0,0.0,71,0.00,,,0.00,VWS V14.01,2013-09-10 03:26:00,
2013-09-09 22:30:00,75.3,65.3,29.92,SW,219,0.0,0.0,71,0.00,,,0.00,VWS V14.01,2013-09-10 03:30:00,
2013-09-09 22:31:00,75.3,64.8,29.92,SW,219,0.0,0.0,70,0.00,,,0.00,VWS V14.01,2013-09-10 03:31:00,
2013-09-09 22:36:00,75.2,65.2,29.92,SW,218,0.0,0.0,71,0.00,,,0.00,VWS V14.01,2013-09-10 03:36:00,
2013-09-09 22:41:00,75.1,65.1,29.93,SW,219,0.0,0.0,71,0.00,,,0.00,VWS V14.01,2013-09-10 03:41:00,
2013-09-09 22:46:00,75.0,65.4,29.93,SW,218,0.0,0.0,72,0.00,,,0.00,VWS V14.01,2013-09-10 03:46:00,
2013-09-09 22:51:00,74.9,65.3,29.93,SW,219,0.0,0.0,72,0.00,,,0.00,VWS V14.01,2013-09-10 03:51:00,
2013-09-09 22:56:00,74.8,65.6,29.93,SW,218,0.0,0.0,73,0.00,,,0.00,VWS V14.01,2013-09-10 03:56:00,
2013-09-09 23:00:00,74.6,65.4,29.93,SW,219,0.0,0.0,73,0.00,,,0.00,VWS V14.01,2013-09-10 04:00:00,
2013-09-09 23:01:00,74.6,65.4,29.93,SW,218,0.0,0.0,73,0.00,,,0.00,VWS V14.01,2013-09-10 04:01:00,
2013-09-09 23:02:00,74.6,65.4,29.93,SW,219,0.0,0.0,73,0.00,,,0.00,VWS V14.01,2013-09-10 04:02:00,
2013-09-09 23:07:00,74.5,65.3,29.93,SW,219,0.0,0.0,73,0.00,,,0.00,VWS V14.01,2013-09-10 04:07:00,
2013-09-09 23:12:00,74.3,65.5,29.93,SW,218,0.0,0.0,74,0.00,,,0.00,VWS V14.01,2013-09-10 04:12:00,
2013-09-09 23:17:00,74.2,65.4,29.93,SW,218,0.0,0.0,74,0.00,,,0.00,VWS V14.01,2013-09-10 04:17:00,
2013-09-09 23:22:00,74.0,65.2,29.93,SW,219,0.0,0.0,74,0.00,,,0.00,VWS V14.01,2013-09-10 04:22:00,
2013-09-09 23:27:00,73.9,65.5,29.93,SW,218,0.0,0.0,75,0.00,,,0.00,VWS V14.01,2013-09-10 04:27:00,
2013-09-09 23:30:00,73.7,65.3,29.93,SW,219,0.0,0.0,75,0.00,,,0.00,VWS V14.01,2013-09-10 04:30:00,
2013-09-09 23:32:00,73.8,65.4,29.93,SW,219,0.0,0.0,75,0.00,,,0.00,VWS V14.01,2013-09-10 04:32:00,
2013-09-09 23:37:00,73.6,65.2,29.93,SW,219,0.0,0.0,75,0.00,,,0.00,VWS V14.01,2013-09-10 04:37:00,
2013-09-09 23:42:00,73.5,65.1,29.93,SW,219,0.0,0.0,75,0.00,,,0.00,VWS V14.01,2013-09-10 04:42:00,
2013-09-09 23:47:00,73.4,65.4,29.93,SW,218,0.0,0.0,76,0.00,,,0.00,VWS V14.01,2013-09-10 04:47:00,
2013-09-09 23:52:00,73.2,64.8,29.93,SW,218,0.0,0.0,75,0.00,,,0.00,VWS V14.01,2013-09-10 04:52:00,
2013-09-09 23:57:00,73.1,64.7,29.93,SW,218,0.0,0.0,75,0.00,,,0.00,VWS V14.01,2013-09-10 04:57:00,